This is the latest recevied weather packets stored in our database for station/object KG5TTF. If no packets are shown the sender has not sent any weather packets the latest 10 day(s).
| Time | Temp. | Humidity | Pressure | Rain* | Wind** | Luminosity | Snow |
|---|---|---|---|---|---|---|---|
| 1777518570 | 5.56° C | 86% | 1024.3 hPa | 0 mm | - | 0 W/m² | - |
| 1777518267 | 5.56° C | 86% | 1024.3 hPa | 0 mm | - | 0 W/m² | - |
| 1777517963 | 5.56° C | 86% | 1024.4 hPa | 0 mm | - | 0 W/m² | - |
| 1777517660 | 5.56° C | 85% | 1024.1 hPa | 0 mm | - | 0 W/m² | - |
| 1777517356 | 6.11° C | 82% | 1024.1 hPa | 0 mm | - | 0 W/m² | - |
| 1777517055 | 6.11° C | 81% | 1023.8 hPa | 0 mm | - | 0 W/m² | - |
| 1777516752 | 6.11° C | 81% | 1023.8 hPa | 0 mm | - | 0 W/m² | - |
| 1777516448 | 5.56° C | 82% | 1023.9 hPa | 0 mm | - | 0 W/m² | - |
| 1777516144 | 6.11° C | 83% | 1023.8 hPa | 0 mm | - | 0 W/m² | - |
| 1777515841 | 6.11° C | 83% | 1023.7 hPa | 0 mm | - | 0 W/m² | - |
| 1777515538 | 6.11° C | 83% | 1023.8 hPa | 0 mm | - | 0 W/m² | - |
| 1777515235 | 6.11° C | 83% | 1023.6 hPa | 0 mm | - | 0 W/m² | - |
| 1777514930 | 5.56° C | 82% | 1023.5 hPa | 0 mm | - | 0 W/m² | - |
| 1777514627 | 5.56° C | 84% | 1023.5 hPa | 0 mm | - | 0 W/m² | - |
| 1777514325 | 5.56° C | 84% | 1023.5 hPa | 0 mm | - | 0 W/m² | - |
| 1777514021 | 5.56° C | 85% | 1023.2 hPa | 0 mm | - | 1 W/m² | - |
| 1777513719 | 5.56° C | 85% | 1023.5 hPa | 0 mm | - | 1 W/m² | - |
| 1777513416 | 6.11° C | 84% | 1023.6 hPa | 0 mm | - | 2 W/m² | - |
| 1777513112 | 6.11° C | 83% | 1023.2 hPa | 0 mm | - | 2 W/m² | - |
| 1777512807 | 6.67° C | 77% | 1023 hPa | 0 mm | - | 3 W/m² | - |
| 1777512505 | 6.67° C | 75% | 1023.2 hPa | 0 mm | - | 4 W/m² | - |
| 1777512201 | 6.67° C | 73% | 1022.9 hPa | 0 mm | - | 7 W/m² | - |
| 1777511899 | 7.22° C | 76% | 1023 hPa | 0 mm | - | 15 W/m² | - |
| 1777511597 | 7.22° C | 77% | 1022.7 hPa | 0 mm | - | 33 W/m² | - |
| 1777511294 | 7.22° C | 76% | 1022.7 hPa | 0 mm | - | 41 W/m² | - |
* Rain latest hour (hover to see other rain measurements)
** Current wind speed in m/s (hover to see current wind gust speed)